Find Starlink 4681

NORAD ID: 53594 Int'l Des: 2022-104 Owner: SPXS Country: US Constellation: starlink operational
LEOCIRCULAR

实时位置

正在加载3D地球...

关于 Starlink 4681

正在加载描述...

即将过境

Passes for default location (London). Set your location on the main map for personalized predictions.

高度历史

Loading altitude history...

两行轨道根数

1 53594U 22104G 26130.16668980 .00244284 00000-0 28744-2 0 9992
2 53594 53.2168 316.7006 0000784 73.1555 97.4689 15.60096866 5466
Epoch: May 10, 2026 • Age: 12 hours

当前状态

高度 387.4 km
速度 7.68 km/s
星下点 24.34°N, 2.99°E
发射日期 Aug 28, 2022
运行时间 3.6 years
类型 internet

技术详情

分类 Payload
质量 300.00 kg
干质量 290.00 kg
总质量 300.00 kg
长度 0.20 m
直径 2.80 m
跨度 9.00 m
形状 Box + pan
制造商 SPXS
平台类型 Starlink
阶段状态 In Orbit
所有者/国家 SPXS/US

Most Searched